Preview of NWS' New Version of Forecast
This preview is not operational and should not be used for support decisions.

Regional Weather Roundup (RWR)

Issued by National Weather Service (NWS)

                            
000
ASUS43 KLSX 182057
RWRMO 

WEATHER SUMMARY FOR MISSOURI
NATIONAL WEATHER SERVICE SPRINGFIELD MO
400 PM CDT MON MAR 18 2019

NOTE: "FAIR" INDICATES FEW OR NO CLOUDS BELOW 12,000 FEET WITH NO
       SIGNIFICANT WEATHER AND/OR OBSTRUCTIONS TO VISIBILITY.
       CURRENT SKY AND/OR WEATHER CONDITIONS ARE NOT AVAILABLE FOR
       CHILLICOTHE AND FARMINGTON.

MOZ001>031-035>038-043-044-053-054-182200-
...NORTHERN AND WESTERN MISSOURI...
  
CITY           SKY/WX    TMP DP  RH WIND       PRES   REMARKS
KANSAS CTY INT PTSUNNY   53  24  32 MISG      30.36F                  
LEE'S SUMMIT   SUNNY     53  24  32 NW8G17    30.36F                  
ST JOSEPH      SUNNY     51  19  28 MISG      30.38F                  
CHILLICOTHE      N/A     50  24  36 CALM      30.38F                  
     
$$
MOZ066>068-077>081-088>096-101>105-182200-
...SOUTHWEST MISSOURI...
  
CITY           SKY/WX    TMP DP  RH WIND       PRES   REMARKS
SPRINGFIELD    SUNNY     59  30  33 N9        30.31F                  
JOPLIN         SUNNY     58  30  34 N8        30.32F                  
BRANSON        MOSUNNY   57  25  28 CALM      30.32F                  
               
$$
MOZ032>034-039>042-045>050-055>058-069>072-182200-
...CENTRAL MISSOURI...  
  
CITY           SKY/WX    TMP DP  RH WIND       PRES   REMARKS
COLUMBIA       NOT AVBL                                               
JEFFERSON CITY SUNNY     54  16  22 N9        30.36F                  
ROLLA          SUNNY     53  20  27 N6        30.35F                  
SEDALIA        SUNNY     51  22  31 CALM      30.36F                  
WARRENSBURG    SUNNY     52  23  32 CALM      30.37F                  
               
$$
MOZ051-052-059>065-182200-
...EAST CENTRAL MISSOURI...
  
CITY           SKY/WX    TMP DP  RH WIND       PRES   REMARKS
ST LOUIS INTL  MOSUNNY   51  20  29 NW8       30.38F                  
                   
$$
MOZ072>076-082>087-097>100-106>115-182200-
...SOUTH CENTRAL AND SOUTHEAST MISSOURI...
  
CITY           SKY/WX    TMP DP  RH WIND       PRES   REMARKS
CAPE GIRARDEAU FAIR      53  24  32 VRB6      30.35F                  
POPLAR BLUFF   FAIR      55  32  41 SE8       30.35F                  
WEST PLAINS    MOSUNNY   55  26  32 N8        30.32F                  
                                       
$$